EUTELSAT 21B

Last updated on Thu Nov 21 2024 00:02:42 GMT+0000 (Coordinated Universal Time)

1 38992U 12062B 24325.29957910 .00000131 00000+0 00000+0 0 9993 2 38992 0.0696 4.5282 0002854 239.8614 304.8672 1.00271529 44079
UTC large
Height (km)
Speed (km/s)
/
Latitude / Longitude
Inclination (degrees)
Orbital Period (minutes)
Azimuth
Elevation
Range (km)
Doppler Factor

Next 0 passes for location: London (51.5072 / 0.1276)

Sorry there are no passes over London.